Flag for United Kingdom Weather past 2 weeks in Preston, England, United Kingdom

Now
54 °F

Passing clouds.


Feels Like: 54 °F
Forecast: 48 / 56 °F
Wind: 2 mph from North

Location: Liverpool Airport

Current Time: Oct 23, 2014 at 5:32:15 AM

Latest Report: Oct 23, 2014 at 4:50 AM


Visibility: N/A

Pressure: 30.04 "Hg

Humidity: 82%

Dew point: 48 °F

Location of PrestonLocation

Historic Weather in Preston — Graph

°F

Preston temperature yesterday

Maximum temperature yesterday: 55 °F (at 11:50 PM)
Minimum temperature yesterday: 50 °F (at 12:50 AM)
Average temperature yesterday: 52 °F

Past Weeks' High & Low Weather Summary

 TemperatureHumidityPressure
High68 °F (Oct 18, 2:50 PM)100% (Oct 11, 4:20 AM)30.24 "Hg (Oct 11, 4:20 AM)
Low37 °F (Oct 12, 8:20 AM)54% (Oct 21, 3:50 PM)29.15 "Hg (Oct 8, 3:50 PM)
Average54 °F84%29.70 "Hg
* Reported Oct 8 4:20 AM — Oct 23 4:20 AM, Preston, Weather by CustomWeather, © 2014

Note: Actual official high and low records may vary slightly from our data, if they occured in-between our weather recording intervals... More about our weather records

Advertising

Preston weather history for previous 24 hours

 ConditionsComfort  
Time TempWeatherWind HumidityBarometerVisibility
4:20 AM
Oct 23
54 °FPassing clouds.6 mph82%30.04 "HgN/A
3:50 AM54 °FPassing clouds.6 mph82%30.04 "HgN/A
3:20 AM54 °FPassing clouds.5 mph82%30.07 "HgN/A
2:50 AM54 °FPassing clouds.8 mph77%30.07 "HgN/A
2:20 AM54 °FPassing clouds.8 mph77%30.07 "HgN/A
1:50 AM55 °FPassing clouds.10 mph72%30.07 "HgN/A
1:20 AM55 °FPassing clouds.12 mph72%30.07 "HgN/A
12:50 AM55 °FPassing clouds.12 mph72%30.09 "HgN/A
12:20 AM54 °FPassing clouds.12 mph77%30.09 "HgN/A
11:50 PM
Oct 22
55 °FPassing clouds.16 mph72%30.09 "HgN/A
11:20 PM54 °FPassing clouds.8 mph77%30.09 "HgN/A
10:50 PM52 °FPassing clouds.7 mph82%30.09 "HgN/A
10:20 PM52 °FPassing clouds.6 mph88%30.12 "HgN/A
9:50 PM52 °FClear.6 mph88%30.12 "Hg10 mi
9:20 PM52 °FClear.3 mph88%30.12 "Hg10 mi
8:50 PM52 °FClear.3 mph88%30.12 "Hg10 mi
8:20 PM52 °FLight rain. Passing clouds.5 mph82%30.12 "HgN/A
7:50 PM54 °FLight rain. Passing clouds.6 mph82%30.12 "HgN/A
7:20 PM54 °FLight rain. Passing clouds.7 mph82%30.12 "HgN/A
6:50 PM54 °FSunny.7 mph82%30.15 "Hg10 mi
6:20 PM54 °FSunny.8 mph77%30.15 "Hg10 mi
5:50 PM54 °FPartly sunny.8 mph77%30.15 "HgN/A
5:20 PM54 °FPartly sunny.7 mph77%30.15 "HgN/A
4:50 PM54 °FScattered clouds.12 mph77%30.15 "HgN/A
4:20 PM54 °FScattered clouds.10 mph82%30.15 "HgN/A
3:20 PM54 °FScattered clouds.9 mph82%30.18 "HgN/A
2:50 PM54 °FScattered clouds.10 mph88%30.18 "HgN/A
2:20 PM54 °FScattered clouds.10 mph82%30.21 "HgN/A
1:50 PM54 °FScattered clouds.9 mph88%30.21 "Hg6 mi
1:20 PM52 °FRain showers. Partly sunny.12 mph88%30.21 "Hg5 mi
12:50 PM52 °FRain showers. Partly sunny.15 mph88%30.21 "Hg5 mi
12:20 PM54 °FSprinkles. Scattered clouds.14 mph82%30.21 "Hg6 mi
11:50 AM54 °FSprinkles. Scattered clouds.16 mph82%30.21 "Hg6 mi
11:20 AM54 °FScattered clouds.18 mph77%30.21 "HgN/A
10:50 AM54 °FScattered clouds.16 mph77%30.21 "HgN/A
10:20 AM54 °FScattered clouds.13 mph77%30.21 "HgN/A
9:50 AM54 °FScattered clouds.13 mph77%30.21 "Hg6 mi
9:20 AM54 °FPassing clouds.15 mph77%30.24 "Hg6 mi
8:50 AM52 °FPassing clouds.14 mph82%30.21 "HgN/A
8:20 AM52 °FPassing clouds.14 mph77%30.21 "HgN/A
7:50 AM52 °FPassing clouds.17 mph82%30.21 "HgN/A
7:20 AM50 °FPassing clouds.15 mph88%30.21 "HgN/A
6:50 AM50 °FPassing clouds.14 mph88%30.21 "HgN/A
6:20 AM52 °FPassing clouds.16 mph77%30.18 "HgN/A
5:50 AM52 °FPassing clouds.18 mph77%30.18 "HgN/A
5:20 AM52 °FPassing clouds.16 mph77%30.18 "HgN/A
Weather by CustomWeather, © 2014

See weather overviewHow to use our weather pages